Flag for U.S.A. Weather past 2 weeks in Brockton, Massachusetts, U.S.A.

Now
74 °F

Mild.


Feels Like: 73 °F
Forecast: 66 / 84 °F
Wind: 13 mph from South

Location: East Milton

Current Time: Sep 2, 2014 at 10:22:39 PM

Latest Report: Sep 2, 2014 at 9:54 PM


Visibility: N/A

Pressure: 29.80 "Hg

Humidity: 88%

Dew point: 70 °F

Location of BrocktonLocation

Historic Weather in Brockton — Graph

°F

Brockton temperature yesterday

Maximum temperature yesterday: 88 °F (at 1:54 PM)
Minimum temperature yesterday: 69 °F (at 5:54 AM)
Average temperature yesterday: 77 °F

Past Weeks' High & Low Weather Summary

 TemperatureHumidityPressure
High91 °F (Sep 2, 12:54 PM)100% (Aug 21, 5:54 AM)30.33 "Hg (Aug 21, 5:54 AM)
Low54 °F (Aug 29, 5:54 AM)36% (Aug 28, 2:54 PM)29.81 "Hg (Sep 2, 8:54 PM)
Average69 °F73%30.07 "Hg
* Reported Aug 18 8:54 PM — Sep 2 8:54 PM, Brockton, Weather by CustomWeather, © 2014

Note: Actual official high and low records may vary slightly from our data, if they occured in-between our weather recording intervals... More about our weather records

Advertising

Brockton weather history for previous 24 hours

 ConditionsComfort  
Time TempWeatherWind HumidityBarometerVisibility
8:54 PM
Sep 2
76 °FMild.12 mph82%29.81 "HgN/A
7:54 PM79 °FWarm.12 mph74%29.82 "HgN/A
6:54 PM81 °FWarm.14 mph72%29.83 "HgN/A
5:54 PM85 °FWarm.13 mph63%29.83 "HgN/A
4:54 PM87 °FWarm.14 mph57%29.83 "HgN/A
3:54 PM86 °FWarm.13 mph61%29.82 "HgN/A
2:54 PM89 °FHot.13 mph53%29.85 "HgN/A
1:54 PM89 °FHot.15 mph53%29.86 "HgN/A
12:54 PM91 °FHot.13 mph49%29.88 "HgN/A
11:54 AM89 °FHot.13 mph53%29.91 "HgN/A
10:54 AM85 °FWarm.7 mph65%29.94 "HgN/A
9:54 AM80 °FWarm.8 mph76%29.95 "HgN/A
8:54 AM76 °FMild.9 mph85%29.95 "HgN/A
7:54 AM73 °FMild.7 mph94%29.94 "HgN/A
6:54 AM70 °FMild.9 mph100%29.93 "HgN/A
5:54 AM70 °FMild.8 mph97%29.92 "HgN/A
4:54 AM70 °FMild.9 mph100%29.91 "HgN/A
3:54 AM71 °FMild.8 mph96%29.92 "HgN/A
2:54 AM71 °FMild.8 mph96%29.93 "HgN/A
1:54 AM72 °FMild.9 mph93%29.95 "HgN/A
12:54 AM73 °FMild.10 mph90%29.96 "HgN/A
11:54 PM
Sep 1
74 °FMild.10 mph91%29.97 "HgN/A
10:54 PM75 °FMild.10 mph88%29.97 "HgN/A
Weather by CustomWeather, © 2014

See weather overviewHow to use our weather pages